FW1327 Weather Reports


Display with metric or nautical units.
time (UTC)temp
F
wind
direction
speed
MPH
gust
MPH
rain 1hr
in
rain 24hr
in
rain mn
in
humidity
%
barometer
mb
20260507151536 60 266 1.0 2.0 0.00 0.00 0.00 87 1016.3
20260507150035 60 308 0.0 2.0 0.00 0.00 0.00 87 1016.1
20260507144536 61 308 0.0 2.0 0.00 0.00 0.00 86 1016.1
20260507143030 60 329 0.0 2.0 0.00 0.00 0.00 88 1016.0
20260507141524 59 337 0.0 2.0 0.00 0.00 0.00 88 1015.7
20260507140022 58 337 0.0 3.0 0.00 0.00 0.00 89 1015.6
20260507134519 58 11 1.0 2.0 0.00 0.00 0.00 88 1015.3
20260507133024 58 26 0.0 0.0 0.00 0.00 0.00 88 1015.1
20260507131519 58 26 0.0 1.0 0.00 0.00 0.00 88 1014.9
20260507130017 58 26 0.0 2.0 0.00 0.00 0.00 88 1014.9
20260507124520 57 26 1.0 3.0 0.00 0.00 0.00 87 1014.9
20260507123019 58 48 0.0 2.0 0.00 0.00 0.00 87 1014.8
20260507121516 58 55 0.0 2.0 0.00 0.00 0.00 87 1014.9
20260507120014 58 18 2.0 4.0 0.00 0.00 0.00 86 1014.9
20260507114513 58 24 2.0 4.0 0.00 0.00 0.00 87 1014.9
20260507113033 57 28 2.0 4.0 0.00 0.00 0.00 86 1014.9
20260507111511 57 5 3.0 4.0 0.00 0.00 0.00 86 1015.0
20260507110011 58 17 2.0 3.0 0.00 0.00 0.00 86 1015.2
20260507104506 58 360 1.0 2.0 0.00 0.00 0.00 86 1015.2
20260507103005 58 17 1.0 3.0 0.00 0.00 0.00 86 1015.2
20260507101512 58 67 1.0 3.0 0.00 0.00 0.00 85 1015.3
20260507100002 59 62 0.0 0.0 0.00 0.00 0.00 86 1015.3
20260507094700 59 62 0.0 2.0 0.00 0.00 0.00 86 1015.4
20260507093058 59 53 0.0 2.0 0.00 0.00 0.00 86 1015.5
20260507091630 59 53 0.0 2.0 0.00 0.00 0.00 85 1015.7
20260507090054 59 28 0.0 1.0 0.00 0.00 0.00 85 1016.0
20260507084603 59 28 0.0 3.0 0.00 0.00 0.00 85 1016.1
20260507083049 60 355 2.0 4.0 0.00 0.00 0.00 86 1016.2
20260507081556 60 315 2.0 3.0 0.00 0.00 0.00 85 1016.3
20260507080046 60 298 0.0 2.0 0.00 0.00 0.00 84 1016.5
20260507074549 60 297 0.0 2.0 0.00 0.00 0.00 83 1016.3
20260507073043 60 294 1.0 3.0 0.00 0.00 0.00 83 1016.1
20260507071541 60 360 1.0 2.0 0.00 0.00 0.00 83 1016.2
20260507070039 60 342 2.0 5.0 0.00 0.00 0.00 84 1016.3
20260507064539 61 329 3.0 6.0 0.00 0.00 0.00 84 1016.3
20260507063041 61 300 6.0 8.0 0.00 0.00 0.00 83 1016.4
20260507061538 62 287 1.0 2.0 0.00 0.00 0.00 80 1016.4
20260507060036 62 301 2.0 4.0 0.00 0.00 0.00 79 1016.6
20260507054535 62 296 1.0 3.0 0.00 0.01 0.00 80 1016.6
20260507053035 62 330 2.0 3.0 0.00 0.01 0.00 80 1016.5
20260507051535 62 304 1.0 4.0 0.00 0.01 0.00 80 1016.4
20260507050034 62 317 1.0 4.0 0.00 0.01 0.00 81 1016.4
20260507044534 62 315 5.0 9.0 0.00 0.01 0.00 82 1016.5
20260507043038 62 302 9.0 13.0 0.00 0.01 0.00 83 1016.4
20260507041532 62 294 12.0 14.0 0.00 0.01 0.00 82 1016.2
20260507040032 62 284 11.0 13.0 0.00 0.01 0.00 82 1016.2
20260507034535 62 294 11.0 15.0 0.00 0.01 0.00 82 1015.9
20260507033030 62 291 14.0 17.0 0.00 0.01 0.00 83 1015.9
20260507031530 61 288 14.0 16.0 0.00 0.01 0.00 87 1015.9
20260507030030 61 281 14.0 15.0 0.00 0.01 0.00 88 1015.8
20260507024529 61 292 12.0 16.0 0.00 0.01 0.00 89 1015.8
20260507023129 61 292 13.0 16.0 0.00 0.01 0.00 89 1015.6
20260507021527 61 284 14.0 16.0 0.00 0.01 0.00 89 1015.7
20260507020044 62 290 14.0 18.0 0.00 0.01 0.00 90 1015.5
20260507014527 62 288 14.0 17.0 0.00 0.01 0.00 90 1015.5
20260507013027 61 290 15.0 17.0 0.00 0.01 0.00 89 1015.6
20260507011538 62 286 15.0 18.0 0.00 0.01 0.00 90 1015.5
20260507010023 62 292 15.0 18.0 0.00 0.01 0.00 91 1015.3
20260507004519 62 291 15.0 18.0 0.00 0.01 0.00 90 1015.4
20260507003019 62 289 15.0 18.0 0.00 0.01 0.00 90 1015.3
20260507001544 62 285 15.0 18.0 0.00 0.01 0.00 89 1015.1
20260507000017 63 289 15.0 18.0 0.00 0.01 0.00 84 1015.2
20260506234517 63 273 14.0 17.0 0.00 0.01 0.00 82 1015.1
20260506233017 63 288 12.0 14.0 0.00 0.01 0.00 79 1015.0
20260506231513 63 284 10.0 12.0 0.00 0.01 0.00 82 1015.1
20260506230013 63 282 8.0 10.0 0.00 0.01 0.00 85 1015.2
20260506224508 62 285 9.0 11.0 0.00 0.01 0.00 86 1015.4
20260506223006 62 279 9.0 12.0 0.00 0.01 0.00 87 1015.7
20260506221505 62 269 10.0 15.0 0.00 0.01 0.00 87 1016.0
20260506220005 62 277 10.0 14.0 0.00 0.02 0.00 88 1016.0
20260506214503 62 284 11.0 14.0 0.00 0.02 0.00 87 1016.1
20260506213001 61 265 10.0 13.0 0.00 0.02 0.00 86 1016.2
20260506211600 61 271 10.0 13.0 0.00 0.02 0.00 86 1016.4
20260506204602 61 263 11.0 15.0 0.00 0.02 0.00 86 1016.7
20260506203121 61 269 11.0 14.0 0.00 0.02 0.00 86 1016.9
20260506194600 61 247 10.0 12.0 0.00 0.02 0.00 85 1017.1
20260506193105 61 261 9.0 11.0 0.00 0.02 0.00 86 1017.3
20260506191556 61 263 8.0 11.0 0.00 0.02 0.00 86 1017.4
20260506190056 61 251 9.0 11.0 0.00 0.02 0.00 86 1017.5
20260506184555 61 238 8.0 11.0 0.00 0.03 0.00 85 1017.6
20260506183103 61 235 7.0 10.0 0.00 0.03 0.00 85 1017.7
20260506181557 61 240 6.0 9.0 0.00 0.03 0.00 84 1017.8
20260506180054 61 225 5.0 9.0 0.00 0.03 0.00 85 1017.9
20260506174552 61 218 7.0 10.0 0.00 0.03 0.00 85 1017.7
20260506173058 60 178 6.0 8.0 0.00 0.03 0.00 85 1017.7
20260506171550 60 192 5.0 8.0 0.00 0.03 0.00 85 1017.8
20260506170054 60 184 4.0 7.0 0.00 0.03 0.00 84 1017.9
20260506164605 60 182 4.0 6.0 0.00 0.03 0.00 84 1018.0
20260506163058 60 185 4.0 6.0 0.00 0.03 0.00 84 1018.0
20260506161547 60 175 3.0 5.0 0.00 0.03 0.00 83 1017.8
20260506160055 60 167 4.0 5.0 0.00 0.03 0.00 83 1017.9
20260506154552 60 169 2.0 4.0 0.00 0.04 0.00 82 1017.9
20260506153044 61 140 2.0 4.0 0.00 0.04 0.00 81 1017.9